Content
SEND FEEDBACK

Daily
Averages
Monthly
Summary
Canada

WATERLOO WELLING, ONTARIO


Home > North America > Canada > Ontario
Elevation: 1031 feet     Latitude: 43 27N     Longitude: 080 23W

WEATHER
 
SELECT A DAY
Number of Records: 259,479;   Date Range: 1/1/95 - 8/27/14
 
SHARE

PRINT THIS DATA

[ ← Previous Day ]
WEATHER ALMANAC - JANUARY 16, 2013
[ Next Day → ]
[ °C ]   °F
Weather ElementAverageHighLow
Temperature29.1 °F35.6 °F (3:00 pm)21.2 °F (4:00 am)
Dewpoint22 °F26.6 °F (7:00 pm)17.6 °F (2:00 pm)
Humidity75.1 %93 % (2:00 am)44 % (1:00 pm)
Barometer29.89 in30.14 in (1:00 am)29.77 in (4:00 pm)
Wind Speed11.3 mph20.7 mph (10:00 pm)
Wind Gust32.2 mph (10:00 pm)
Weather ElementAverage
Visibility9 mi
Wind DirectionS (178.8 °)

Weather ElementTotal
Precipitation---
Heating Degree Days36.6 (Base 65)
Averaged from 34 records on January 16, 2013
WEATHER CONDITIONS BREAKOUT
WIND DIRECTION BREAKOUT
WEATHER BY HOUR - JANUARY 16, 2013
[ °C ]   °F
Local TimeTemperatureDewpointHumidityBarometerVisibilityWind DirectionWind SpeedGust SpeedPrecipitationEventsConditions
1:00 AM22.0 °F19.0 °F84 %30.14 in10.0 miENE (70°)2.3 mph
2:00 AM23.0 °F21.2 °F93 %30.13 in9.0 miCalmPartly Cloudy
3:00 AM23.0 °F21.2 °F93 %30.10 in9.0 miNE (40°)2.3 mphClear
4:00 AM21.2 °F19.4 °F93 %30.07 in9.0 miSSE (150°)3.5 mphClear
5:00 AM21.2 °F19.4 °F93 %30.05 in9.0 miSE (140°)4.6 mphMostly Cloudy
6:00 AM23.0 °F19.4 °F86 %30.02 in9.0 miCalmOvercast
7:00 AM23.0 °F20.0 °F85 %30.00 in10.0 miSE (140°)2.3 mphOvercast
7:00 AM23.0 °F21.2 °F93 %30.00 in9.0 miCalmOvercast
8:00 AM21.2 °F19.4 °F93 %29.98 in6.0 miCalmPartly Cloudy
9:00 AM23.0 °F21.2 °F93 %29.96 in9.0 miCalmMostly Cloudy
10:00 AM26.6 °F19.4 °F74 %29.93 in9.0 miSSE (160°)5.8 mphClear
11:00 AM30.2 °F19.4 °F64 %29.89 in9.0 miSSW (200°)6.9 mphClear
12:00 PM32.0 °F19.4 °F60 %29.87 in9.0 miWSW (240°)13.8 mphClear
1:00 PM33.0 °F19.0 °F44 %29.82 in10.0 miSW (220°)16.1 mph
1:00 PM33.8 °F19.4 °F56 %29.82 in9.0 miSW (230°)16.1 mph24.2 mphClear
2:00 PM33.8 °F17.6 °F52 %29.79 in9.0 miWSW (240°)18.4 mphClear
3:00 PM35.6 °F21.2 °F56 %29.78 in9.0 miSW (220°)16.1 mph23.0 mphClear
4:00 PM33.8 °F21.2 °F60 %29.77 in9.0 miSSW (210°)17.3 mphPartly Cloudy
5:00 PM33.8 °F21.2 °F60 %29.78 in9.0 miSW (220°)16.1 mphMostly Cloudy
6:00 PM32.0 °F23.0 °F69 %29.80 in9.0 miSW (220°)11.5 mph24.2 mphOvercast
7:00 PM31.0 °F26.0 °F76 %29.81 in10.0 miSW (230°)13.8 mphOvercast
7:00 PM32.0 °F26.6 °F80 %29.81 in9.0 miSW (230°)13.8 mph19.6 mphOvercast
8:00 PM32.0 °F23.0 °F69 %29.82 in9.0 miSW (230°)19.6 mphOvercast
9:00 PM32.0 °F23.0 °F69 %29.83 in9.0 miSW (230°)16.1 mphOvercast
10:00 PM32.0 °F23.0 °F69 %29.83 in9.0 miWSW (250°)20.7 mph32.2 mphOvercast
10:14 PM32.0 °F24.8 °F75 %29.83 in9.0 miWSW (250°)17.3 mph25.3 mphSnowLight Snow
10:17 PM32.0 °F24.8 °F75 %29.83 in9.0 miWSW (250°)15.0 mph25.3 mphSnowLight Snow
10:37 PM30.2 °F24.8 °F80 %29.83 in9.0 miWSW (250°)18.4 mph27.6 mphSnowLight Snow
10:56 PM30.2 °F24.8 °F80 %29.84 in9.0 miWSW (240°)16.1 mph27.6 mphOvercast
11:00 PM30.2 °F24.8 °F80 %29.84 in9.0 miWSW (240°)13.8 mph27.6 mphOvercast
11:29 PM32.0 °F24.8 °F75 %29.84 in9.0 miWSW (240°)17.3 mph24.2 mphSnowLight Snow
11:40 PM32.0 °F24.8 °F75 %29.84 in9.0 miWSW (240°)17.3 mph24.2 mphSnowLight Snow
11:42 PM32.0 °F24.8 °F75 %29.84 in9.0 miWSW (250°)16.1 mph24.2 mphSnowLight Snow
11:45 PM32.0 °F24.8 °F75 %29.84 in9.0 miWSW (250°)15.0 mph24.2 mphSnowLight Snow
Hourly data recorded from CYKF, located miles away from Waterloo Welling, Ontario







STORIES FROM OUR PARTNERS